Estación de Requinoa
Ultimos registro cada 15 minutos 96
| N° | Estación | Fecha / Hora | Temperatura | Humedad | Lluvia | Velocidad | Dirección | Radiación | Presion |
| 96 | Requinoa | 03-05-2026 23:45 | 12,3 | 74 | 0 | 0 | 109 | 0 | 1011,2 |
| 95 | Requinoa | 03-05-2026 23:30 | 12,3 | 74 | 0 | 0 | 109 | 0 | 1011,3 |
| 94 | Requinoa | 03-05-2026 23:15 | 12,6 | 71 | 0 | 0 | 110 | 0 | 1011,2 |
| 93 | Requinoa | 03-05-2026 23:00 | 13,2 | 69 | 0 | 0,2 | 119 | 0 | 1011,1 |
| 92 | Requinoa | 03-05-2026 22:45 | 13,5 | 67 | 0 | 0 | 135 | 0 | 1011,3 |
| 91 | Requinoa | 03-05-2026 22:30 | 13,5 | 68 | 0 | 0,2 | 140 | 0 | 1011,5 |
| 90 | Requinoa | 03-05-2026 22:15 | 13,6 | 69 | 0 | 0,2 | 142 | 0 | 1011,4 |
| 89 | Requinoa | 03-05-2026 22:00 | 13,5 | 69 | 0 | 0 | 143 | 0 | 1011,4 |
| 88 | Requinoa | 03-05-2026 21:45 | 13,8 | 68 | 0 | 0 | 143 | 0 | 1011,4 |
| 87 | Requinoa | 03-05-2026 21:30 | 14,1 | 66 | 0 | 0 | 143 | 0 | 1011,4 |
| 86 | Requinoa | 03-05-2026 21:15 | 14,4 | 66 | 0 | 0 | 143 | 0 | 1011,2 |
| 85 | Requinoa | 03-05-2026 21:00 | 14,5 | 64 | 0 | 0 | 143 | 0 | 1011,1 |
| 84 | Requinoa | 03-05-2026 20:45 | 14,9 | 63 | 0 | 0 | 143 | 0 | 1011,2 |
| 83 | Requinoa | 03-05-2026 20:30 | 15,3 | 60 | 0 | 0 | 143 | 0 | 1011,1 |
| 82 | Requinoa | 03-05-2026 20:15 | 15,6 | 58 | 0 | 0 | 143 | 0 | 1011 |
| 81 | Requinoa | 03-05-2026 20:00 | 15,8 | 58 | 0 | 0 | 143 | 0 | 1011,1 |
| 80 | Requinoa | 03-05-2026 19:45 | 15,9 | 58 | 0 | 0 | 143 | 0 | 1011,2 |
| 79 | Requinoa | 03-05-2026 19:30 | 16,4 | 56 | 0 | 0 | 143 | 0 | 1011 |
| 78 | Requinoa | 03-05-2026 19:15 | 16,8 | 55 | 0 | 0 | 143 | 0 | 1010,8 |
| 77 | Requinoa | 03-05-2026 19:00 | 17,7 | 51 | 0 | 0 | 143 | 0 | 1010,7 |
| 76 | Requinoa | 03-05-2026 18:45 | 18,1 | 50 | 0 | 0 | 137 | 0 | 1010,6 |
| 75 | Requinoa | 03-05-2026 18:30 | 18,1 | 52 | 0 | 0 | 142 | 0 | 1010,5 |
| 74 | Requinoa | 03-05-2026 18:15 | 18,8 | 52 | 0 | 0 | 146 | 0 | 1010,5 |
| 73 | Requinoa | 03-05-2026 18:00 | 19,7 | 51 | 0 | 0 | 156 | 3 | 1010,4 |
| 72 | Requinoa | 03-05-2026 17:45 | 20,5 | 49 | 0 | 0 | 143 | 15 | 1010,5 |
| 71 | Requinoa | 03-05-2026 17:30 | 21,3 | 47 | 0 | 0 | 143 | 30 | 1010,2 |
| 70 | Requinoa | 03-05-2026 17:15 | 21,6 | 45 | 0 | 0 | 117 | 52 | 1010 |
| 69 | Requinoa | 03-05-2026 17:00 | 22,2 | 43 | 0 | 0,2 | 192 | 74 | 1009,8 |
| 68 | Requinoa | 03-05-2026 16:45 | 23,1 | 44 | 0 | 0,2 | 186 | 160 | 1009,8 |
| 67 | Requinoa | 03-05-2026 16:30 | 23,7 | 44 | 0 | 1 | 187 | 195 | 1009,8 |
| 66 | Requinoa | 03-05-2026 16:15 | 23,5 | 43 | 0 | 0,4 | 192 | 134 | 1009,9 |
| 65 | Requinoa | 03-05-2026 16:00 | 23,4 | 43 | 0 | 0,2 | 189 | 166 | 1009,9 |
| 64 | Requinoa | 03-05-2026 15:45 | 23,3 | 47 | 0 | 0 | 193 | 167 | 1009,9 |
| 63 | Requinoa | 03-05-2026 15:30 | 23,5 | 46 | 0 | 0,4 | 195 | 159 | 1009,8 |
| 62 | Requinoa | 03-05-2026 15:15 | 23,6 | 46 | 0 | 0,2 | 202 | 212 | 1009,7 |
| 61 | Requinoa | 03-05-2026 15:00 | 24,2 | 44 | 0 | 0,2 | 205 | 171 | 1009,6 |
| 60 | Requinoa | 03-05-2026 14:45 | 24,2 | 41 | 0 | 0,4 | 198 | 202 | 1009,6 |
| 59 | Requinoa | 03-05-2026 14:30 | 24,6 | 40 | 0 | 0,4 | 194 | 295 | 1009,5 |
| 58 | Requinoa | 03-05-2026 14:15 | 24,2 | 42 | 0 | 0,4 | 200 | 259 | 1009,5 |
| 57 | Requinoa | 03-05-2026 14:00 | 23,8 | 40 | 0 | 0,4 | 216 | 254 | 1009,7 |
| 56 | Requinoa | 03-05-2026 13:45 | 23,8 | 43 | 0 | 0,4 | 198 | 291 | 1009,8 |
| 55 | Requinoa | 03-05-2026 13:30 | 24,2 | 42 | 0 | 0,4 | 202 | 440 | 1009,9 |
| 54 | Requinoa | 03-05-2026 13:15 | 23,7 | 45 | 0 | 0,4 | 199 | 391 | 1010,2 |
| 53 | Requinoa | 03-05-2026 13:00 | 23,3 | 44 | 0 | 0,5 | 216 | 348 | 1010,4 |
| 52 | Requinoa | 03-05-2026 12:45 | 22,9 | 50 | 0 | 0,5 | 232 | 452 | 1010,5 |
| 51 | Requinoa | 03-05-2026 12:30 | 22,1 | 52 | 0 | 0,4 | 256 | 399 | 1010,8 |
| 50 | Requinoa | 03-05-2026 12:15 | 21,8 | 52 | 0 | 0,2 | 222 | 363 | 1010,9 |
| 49 | Requinoa | 03-05-2026 12:00 | 20,2 | 56 | 0 | 0,4 | 245 | 305 | 1011,1 |
| 48 | Requinoa | 03-05-2026 11:45 | 19,9 | 58 | 0 | 0,4 | 213 | 284 | 1011,4 |
| 47 | Requinoa | 03-05-2026 11:30 | 19,3 | 62 | 0 | 0,4 | 224 | 275 | 1011,4 |
| 46 | Requinoa | 03-05-2026 11:15 | 18,9 | 60 | 0 | 0,4 | 202 | 306 | 1011,7 |
| 45 | Requinoa | 03-05-2026 11:00 | 18,2 | 62 | 0 | 0,2 | 209 | 266 | 1011,7 |
| 44 | Requinoa | 03-05-2026 10:45 | 17,8 | 66 | 0 | 0 | 123 | 229 | 1011,7 |
| 43 | Requinoa | 03-05-2026 10:30 | 16,7 | 67 | 0 | 0 | 110 | 252 | 1011,7 |
| 42 | Requinoa | 03-05-2026 10:15 | 15,8 | 70 | 0 | 0,2 | 110 | 227 | 1011,6 |
| 41 | Requinoa | 03-05-2026 10:00 | 14,7 | 73 | 0 | 0,2 | 113 | 206 | 1011,7 |
| 40 | Requinoa | 03-05-2026 09:45 | 13,5 | 77 | 0 | 0,4 | 115 | 247 | 1011,5 |
| 39 | Requinoa | 03-05-2026 09:30 | 12,1 | 81 | 0 | 0,4 | 108 | 193 | 1011,5 |
| 38 | Requinoa | 03-05-2026 09:15 | 11,5 | 84 | 0 | 0,4 | 108 | 135 | 1011,4 |
| 37 | Requinoa | 03-05-2026 09:00 | 10,6 | 88 | 0 | 0 | 108 | 172 | 1011,1 |
| 36 | Requinoa | 03-05-2026 08:45 | 8,8 | 89 | 0 | 0,2 | 110 | 129 | 1011 |
| 35 | Requinoa | 03-05-2026 08:30 | 8,3 | 89 | 0 | 0,2 | 122 | 41 | 1011 |
| 34 | Requinoa | 03-05-2026 08:15 | 7,7 | 90 | 0 | 0 | 104 | 53 | 1010,9 |
| 33 | Requinoa | 03-05-2026 08:00 | 6,9 | 91 | 0 | 0,2 | 104 | 17 | 1010,8 |
| 32 | Requinoa | 03-05-2026 07:45 | 6,4 | 91 | 0 | 0,5 | 103 | 10 | 1010,5 |
| 31 | Requinoa | 03-05-2026 07:30 | 6,2 | 90 | 0 | 0,2 | 106 | 4 | 1010,4 |
| 30 | Requinoa | 03-05-2026 07:15 | 6,1 | 91 | 0 | 0,2 | 110 | 0 | 1010,1 |
| 29 | Requinoa | 03-05-2026 07:00 | 5,6 | 91 | 0 | 0 | 113 | 0 | 1010 |
| 28 | Requinoa | 03-05-2026 06:45 | 5,9 | 92 | 0 | 0 | 113 | 0 | 1010 |
| 27 | Requinoa | 03-05-2026 06:30 | 6,3 | 91 | 0 | 0 | 113 | 0 | 1010,1 |
| 26 | Requinoa | 03-05-2026 06:15 | 6 | 91 | 0 | 0 | 113 | 0 | 1010,1 |
| 25 | Requinoa | 03-05-2026 06:00 | 6,1 | 92 | 0 | 0 | 113 | 0 | 1010,1 |
| 24 | Requinoa | 03-05-2026 05:45 | 6,2 | 92 | 0 | 0 | 113 | 0 | 1010,3 |
| 23 | Requinoa | 03-05-2026 05:30 | 6,3 | 91 | 0 | 0,2 | 110 | 0 | 1010,4 |
| 22 | Requinoa | 03-05-2026 05:15 | 6,4 | 90 | 0 | 0,2 | 104 | 0 | 1010,3 |
| 21 | Requinoa | 03-05-2026 05:00 | 6,7 | 88 | 0 | 0 | 104 | 0 | 1010,2 |
| 20 | Requinoa | 03-05-2026 04:45 | 7,5 | 86 | 0 | 0 | 105 | 0 | 1010,3 |
| 19 | Requinoa | 03-05-2026 04:30 | 8,1 | 85 | 0 | 0,2 | 110 | 0 | 1010,1 |
| 18 | Requinoa | 03-05-2026 04:15 | 8,1 | 86 | 0 | 0 | 118 | 0 | 1009,9 |
| 17 | Requinoa | 03-05-2026 04:00 | 7,8 | 87 | 0 | 0 | 112 | 0 | 1010 |
| 16 | Requinoa | 03-05-2026 03:45 | 7,6 | 87 | 0 | 0,5 | 103 | 0 | 1010,1 |
| 15 | Requinoa | 03-05-2026 03:30 | 7,9 | 88 | 0 | 0,2 | 103 | 0 | 1010,3 |
| 14 | Requinoa | 03-05-2026 03:15 | 7,8 | 88 | 0 | 0,2 | 103 | 0 | 1010,5 |
| 13 | Requinoa | 03-05-2026 03:00 | 7,5 | 88 | 0 | 0 | 103 | 0 | 1010,6 |
| 12 | Requinoa | 03-05-2026 02:45 | 7,3 | 88 | 0 | 0 | 103 | 0 | 1010,6 |
| 11 | Requinoa | 03-05-2026 02:30 | 7,6 | 87 | 0 | 0 | 103 | 0 | 1010,7 |
| 10 | Requinoa | 03-05-2026 02:15 | 8,2 | 85 | 0 | 0 | 103 | 0 | 1010,6 |
| 9 | Requinoa | 03-05-2026 02:00 | 8,8 | 83 | 0 | 0 | 103 | 0 | 1010,5 |
| 8 | Requinoa | 03-05-2026 01:45 | 9,1 | 83 | 0 | 0 | 103 | 0 | 1010,2 |
| 7 | Requinoa | 03-05-2026 01:30 | 9,6 | 83 | 0 | 0,2 | 104 | 0 | 1010,1 |
| 6 | Requinoa | 03-05-2026 01:15 | 9,9 | 83 | 0 | 0 | 89 | 0 | 1010,1 |
| 5 | Requinoa | 03-05-2026 01:00 | 9,6 | 83 | 0 | 0 | 84 | 0 | 1010,1 |
| 4 | Requinoa | 03-05-2026 00:45 | 9,6 | 83 | 0 | 0 | 84 | 0 | 1010,2 |
| 3 | Requinoa | 03-05-2026 00:30 | 9,2 | 84 | 0 | 0 | 84 | 0 | 1010,3 |
| 2 | Requinoa | 03-05-2026 00:15 | 8,9 | 84 | 0 | 0 | 84 | 0 | 1010,6 |
| 1 | Requinoa | 03-05-2026 00:00 | 9,3 | 84 | 0 | 0 | 84 | 0 | 1010,6 |